Temp
74 75 76 76 75 76 76 75 76 76 77 78 78 78 79 79 79 79 79 67 68 71 73 73 73 72 72 72 72 72 72 72 72 71 71 71 71 71 71 71 71 71 72
75 74 76 74 75 75 76 75 75 75 76 77 77 77 78 78 79 78 78 76 67 70 72 73 73 73 73 73 72 72 72 72 71 71 71 71 71 70 70 70 71 71 71
75 75 75 74 75 76 72 74 75 75 74 76 75 77 78 79 78 78 77 77 76 67 70 72 73 73 73 73 73 73 72 71 71 71 71 70 70 70 70 70 71 71 71
74 74 74 74 75 74 73 73 74 73 73 74 76 77 77 78 78 79 78 77 76 78 70 70 72 73 73 73 73 73 72 72 71 71 70 70 69 69 70 70 70 70 71
74 74 74 74 74 73 72 72 72 72 73 74 74 76 77 76 77 78 77 76 75 75 77 70 69 71 72 73 73 73 72 72 71 71 70 70 69 69 69 69 70 70 70
74 73 73 73 73 72 71 71 71 72 71 72 72 73 76 77 76 76 77 77 76 73 74 75 74 73 70 72 73 73 73 72 71 70 70 69 69 69 69 69 69 70 70
74 73 73 73 72 71 72 71 71 70 70 72 69 74 75 77 77 76 76 76 75 75 75 74 74 76 75 69 71 72 73 73 72 71 70 70 69 69 69 69 69 69 69
74 73 73 73 73 71 70 70 69 69 70 72 69 70 69 73 74 76 75 74 76 76 75 76 76 76 76 76 73 69 70 72 72 71 70 70 70 69 69 69 69 69 69
74 73 73 73 73 72 70 70 70 67 68 71 71 69 67 70 71 73 72 72 72 74 74 75 76 76 77 77 72 69 65 68 71 72 71 70 70 70 69 69 69 69 69
74 73 73 73 73 73 71 71 71 69 68 67 70 70 72 70 68 69 72 72 72 72 73 74 75 76 77 76 71 68 65 66 68 70 71 71 70 70 70 69 69 69 68
74 74 73 74 73 73 73 72 71 70 70 68 69 70 68 68 69 66 67 73 72 73 74 74 75 75 76 76 75 71 64 65 65 67 69 70 71 71 70 70 69 69 68
73 73 72 72 73 73 72 71 71 70 70 69 70 69 68 67 68 66 65 69 70 74 76 75 74 75 75 75 72 66 64 63 64 65 66 68 69 70 70 70 70 69 69
71 71 72 71 72 71 71 71 71 70 69 68 69 69 70 69 71 70 68 68 68 72 73 76 76 74 75 74 73 64 63 63 63 64 65 66 67 68 69 69 70 70 69
70 71 70 71 72 72 71 71 70 69 70 69 68 69 69 70 70 69 67 67 65 68 70 70 77 76 75 75 72 63 70 62 62 63 64 64 65 66 67 68 68 68 69
68 68 68 68 70 70 71 70 69 69 69 69 69 69 68 70 70 70 70 69 66 62 66 74 71 76 75 75 71 72 70 65 62 62 63 63 64 65 65 66 67 67 67
67 67 67 67 68 68 69 69 68 69 69 69 69 69 69 70 69 69 68 68 68 65 62 72 74 74 73 72 70 69 71 63 62 62 61 61 62 63 64 64 65 65 65
66 66 66 67 67 67 68 68 68 68 68 68 69 67 67 69 68 68 67 67 66 66 63 68 73 75 73 71 73 68 69 70 69 62 61 61 61 62 63 63 63 63 63
66 66 66 66 66 66 67 67 66 67 66 66 67 67 66 67 66 67 67 65 66 67 64 62 68 71 71 71 71 72 73 72 71 67 61 61 61 60 61 61 61 61 62
65 65 65 64 64 64 65 66 66 66 66 66 66 66 66 66 66 66 66 65 66 66 66 64 63 68 70 71 69 69 68 70 72 65 62 61 60 60 60 60 60 60 59
63 63 63 63 63 63 65 63 64 64 65 65 66 66 66 66 66 66 66 66 66 64 64 63 63 63 66 68 67 64 65 69 67 71 67 65 63 60 60 60 59 59 58
61 62 61 62 62 62 62 59 61 62 63 63 65 66 65 64 60 62 64 65 65 63 63 62 61 62 63 64 62 63 61 65 67 70 69 69 67 66 66 60 61 58 57
58 59 59 59 59 61 56 55 55 59 62 62 62 64 65 62 62 59 58 58 60 62 62 61 62 61 62 64 64 62 60 60 57 69 66 66 69 67 68 69 64 59 58
55 55 56 56 56 58 55 54 54 58 60 61 61 61 62 64 61 64 62 60 59 58 58 61 60 62 63 65 65 62 60 59 59 64 63 59 67 65 68 69 61 59 58
51 52 53 54 54 56 54 53 53 58 59 60 60 60 60 61 62 58 59 60 62 64 64 64 61 62 64 66 66 65 64 63 63 63 65 56 62 61 67 69 60 58 58
49 50 51 51 52 54 53 52 53 57 57 58 60 60 59 58 56 54 55 56 59 61 62 58 58 57 58 57 59 62 58 57 54 56 62 58 57 58 62 64 67 57 56
48 49 49 51 51 52 51 50 51 52 50 51 53 55 55 56 54 53 54 54 54 57 60 61 61 62 59 61 57 59 61 55 55 52 60 57 56 57 54 63 62 63 63
MSLP
1021.41 1021.54 1021.56 1021.66 1021.71 1021.73 1021.56 1021.46 1021.36 1021.25 1021.10 1020.99 1020.90 1020.82 1020.66 1020.63 1020.74 1020.84 1020.94 1021.62 1021.84 1021.74 1021.70 1021.72 1021.87 1022.01 1022.13 1022.22 1022.29 1022.31 1022.31 1022.36 1022.39 1022.36 1022.40 1022.38 1022.34 1022.38 1022.38 1022.33 1022.34 1022.30 1022.26
1021.22 1021.32 1021.34 1021.53 1021.54 1021.59 1021.54 1021.46 1021.25 1021.18 1021.03 1020.97 1020.71 1020.71 1020.64 1020.61 1020.65 1020.81 1020.83 1021.00 1021.61 1021.69 1021.66 1021.62 1021.67 1021.81 1021.92 1022.02 1022.14 1022.19 1022.23 1022.33 1022.40 1022.44 1022.48 1022.49 1022.47 1022.49 1022.53 1022.49 1022.42 1022.37 1022.32
1021.05 1021.11 1021.17 1021.29 1021.33 1021.46 1021.65 1021.50 1021.28 1021.28 1021.10 1020.89 1020.74 1020.47 1020.53 1020.50 1020.55 1020.55 1020.72 1020.71 1020.89 1021.59 1021.56 1021.52 1021.53 1021.60 1021.71 1021.78 1021.93 1022.08 1022.19 1022.30 1022.37 1022.44 1022.51 1022.58 1022.60 1022.60 1022.63 1022.58 1022.54 1022.53 1022.48
1021.03 1021.04 1021.05 1021.04 1021.28 1021.43 1021.45 1021.29 1021.11 1021.04 1020.92 1020.72 1020.46 1020.24 1020.33 1020.27 1020.23 1020.27 1020.40 1020.52 1020.69 1020.66 1021.25 1021.42 1021.44 1021.41 1021.50 1021.61 1021.74 1021.91 1022.08 1022.19 1022.27 1022.36 1022.47 1022.55 1022.61 1022.64 1022.68 1022.65 1022.61 1022.61 1022.63
1020.85 1020.92 1020.84 1020.90 1021.11 1021.20 1021.28 1021.21 1021.08 1021.04 1020.69 1020.50 1020.40 1020.20 1020.02 1020.00 1019.93 1019.96 1020.05 1020.29 1020.49 1020.67 1020.55 1021.00 1021.31 1021.31 1021.34 1021.38 1021.50 1021.65 1021.84 1022.01 1022.12 1022.24 1022.33 1022.45 1022.55 1022.64 1022.69 1022.74 1022.68 1022.68 1022.65
1020.61 1020.78 1020.76 1020.84 1020.97 1021.05 1021.07 1021.14 1021.00 1020.88 1020.79 1020.63 1020.41 1020.08 1019.73 1019.62 1019.69 1019.74 1019.67 1019.91 1020.04 1020.41 1020.52 1020.55 1020.79 1020.89 1021.18 1021.21 1021.25 1021.35 1021.46 1021.72 1021.91 1022.07 1022.18 1022.30 1022.42 1022.53 1022.59 1022.69 1022.72 1022.68 1022.67
1020.25 1020.42 1020.43 1020.49 1020.74 1020.80 1020.71 1020.87 1020.84 1020.74 1020.55 1020.62 1020.38 1019.42 1019.05 1018.99 1019.09 1019.32 1019.48 1019.55 1019.60 1019.96 1020.11 1020.29 1020.38 1020.31 1020.48 1021.01 1021.04 1021.09 1021.16 1021.36 1021.63 1021.83 1021.99 1022.07 1022.19 1022.34 1022.41 1022.51 1022.65 1022.65 1022.64
1019.88 1020.05 1020.16 1020.17 1020.25 1020.49 1020.60 1020.66 1020.75 1020.45 1020.42 1020.47 1020.03 1019.65 1018.60 1018.58 1018.76 1018.81 1019.08 1019.20 1019.14 1019.35 1019.61 1019.72 1019.82 1019.93 1019.98 1020.08 1020.32 1020.72 1020.89 1020.99 1021.21 1021.47 1021.70 1021.81 1021.90 1022.06 1022.17 1022.27 1022.42 1022.51 1022.53
1019.46 1019.71 1019.81 1019.81 1019.88 1020.13 1020.13 1020.25 1020.40 1020.49 1020.14 1020.17 1020.24 1019.77 1018.95 1018.02 1018.27 1018.56 1018.71 1018.90 1018.98 1019.01 1019.19 1019.24 1019.33 1019.39 1019.48 1019.59 1019.90 1020.29 1020.56 1020.76 1020.86 1020.99 1021.23 1021.46 1021.57 1021.75 1021.90 1022.04 1022.15 1022.29 1022.35
1018.93 1019.12 1019.28 1019.42 1019.50 1019.66 1019.84 1019.84 1020.01 1020.14 1020.31 1019.90 1019.88 1019.98 1019.66 1019.42 1018.62 1017.85 1018.14 1018.32 1018.60 1018.60 1018.65 1018.77 1018.80 1018.82 1018.98 1019.05 1019.26 1019.47 1019.81 1020.23 1020.53 1020.66 1020.80 1020.98 1021.15 1021.34 1021.51 1021.72 1021.84 1021.98 1022.10
1018.51 1018.53 1018.78 1018.95 1019.09 1019.19 1019.23 1019.31 1019.53 1019.77 1019.90 1019.81 1019.48 1019.37 1019.60 1019.45 1019.28 1018.93 1017.72 1017.30 1017.97 1017.94 1018.02 1018.01 1018.01 1018.16 1018.29 1018.44 1018.61 1018.85 1019.34 1019.58 1019.88 1020.17 1020.37 1020.53 1020.63 1020.83 1021.03 1021.21 1021.40 1021.59 1021.75
1018.19 1018.28 1018.39 1018.39 1018.57 1018.68 1018.72 1018.82 1019.01 1019.24 1019.42 1019.47 1019.34 1019.19 1019.11 1018.83 1018.56 1018.70 1018.21 1017.70 1017.33 1017.06 1017.14 1017.32 1017.38 1017.31 1017.52 1017.71 1017.94 1018.08 1018.57 1018.92 1019.18 1019.45 1019.73 1019.97 1020.14 1020.26 1020.45 1020.64 1020.77 1020.99 1021.21
1017.95 1017.95 1018.06 1018.09 1017.97 1018.01 1018.10 1018.19 1018.39 1018.63 1018.77 1018.79 1018.77 1018.67 1018.68 1018.51 1018.40 1018.31 1018.09 1017.66 1017.25 1016.90 1016.73 1016.45 1016.41 1016.62 1016.75 1016.91 1017.05 1017.51 1017.95 1018.21 1018.41 1018.68 1018.99 1019.30 1019.56 1019.68 1019.82 1020.03 1020.17 1020.30 1020.49
1018.11 1017.94 1017.91 1017.82 1017.69 1017.57 1017.59 1017.69 1017.81 1017.90 1018.00 1018.14 1018.22 1018.13 1018.09 1018.04 1018.08 1017.98 1017.83 1017.68 1017.15 1016.69 1016.36 1016.04 1015.58 1015.71 1015.97 1016.11 1016.25 1016.76 1017.09 1017.52 1017.65 1017.84 1018.15 1018.49 1018.77 1019.01 1019.18 1019.38 1019.54 1019.69 1019.84
1018.50 1018.17 1017.93 1017.74 1017.51 1017.40 1017.31 1017.36 1017.33 1017.24 1017.39 1017.43 1017.42 1017.53 1017.53 1017.45 1017.49 1017.53 1017.51 1017.38 1017.09 1016.43 1015.52 1014.93 1015.31 1015.12 1015.39 1015.61 1015.86 1016.17 1016.34 1016.41 1016.85 1017.04 1017.21 1017.52 1017.81 1018.08 1018.34 1018.53 1018.76 1018.97 1019.14
1018.77 1018.32 1017.99 1017.74 1017.51 1017.32 1017.17 1017.16 1017.04 1016.91 1016.83 1016.73 1016.78 1016.71 1016.76 1016.79 1016.82 1016.89 1016.97 1016.88 1016.68 1016.41 1015.55 1014.96 1014.69 1015.05 1015.32 1015.48 1015.51 1015.83 1015.65 1015.91 1016.09 1016.36 1016.50 1016.59 1016.84 1017.12 1017.34 1017.57 1017.80 1018.10 1018.34
1019.07 1018.66 1018.28 1017.90 1017.58 1017.33 1017.08 1016.90 1016.76 1016.61 1016.43 1016.31 1016.22 1016.35 1016.21 1016.18 1016.17 1016.19 1016.31 1016.25 1016.07 1015.99 1015.21 1014.54 1014.53 1014.55 1014.70 1014.93 1014.82 1015.25 1015.17 1015.18 1015.17 1015.44 1015.68 1015.77 1015.88 1016.10 1016.35 1016.54 1016.75 1017.06 1017.34
1019.35 1019.01 1018.61 1018.21 1017.85 1017.51 1017.16 1016.86 1016.61 1016.37 1016.18 1015.90 1015.75 1015.74 1015.61 1015.61 1015.60 1015.64 1015.53 1015.46 1015.36 1015.20 1014.97 1014.32 1014.18 1013.94 1013.86 1014.23 1014.24 1014.12 1013.91 1014.15 1014.05 1013.98 1014.41 1014.76 1014.91 1015.03 1015.18 1015.39 1015.72 1015.96 1016.17
1019.74 1019.31 1018.95 1018.59 1018.25 1017.85 1017.41 1017.10 1016.76 1016.38 1016.07 1015.75 1015.51 1015.29 1015.04 1015.08 1014.99 1014.90 1014.93 1014.71 1014.66 1014.58 1014.35 1014.12 1013.43 1013.54 1013.28 1013.37 1013.41 1013.60 1013.57 1013.20 1012.94 1013.02 1013.11 1013.35 1013.62 1013.81 1014.02 1014.19 1014.48 1014.60 1014.81
1020.17 1019.73 1019.34 1018.96 1018.61 1018.17 1017.71 1017.48 1017.00 1016.51 1016.06 1015.66 1015.38 1015.14 1014.86 1014.65 1014.45 1014.26 1014.16 1014.08 1014.01 1013.92 1013.76 1013.53 1013.13 1012.90 1012.86 1012.73 1012.79 1012.89 1012.48 1012.32 1012.16 1011.97 1012.03 1012.20 1012.22 1012.37 1012.55 1012.77 1012.85 1012.93 1013.28
1020.54 1020.10 1019.63 1019.22 1018.88 1018.44 1018.11 1018.04 1017.41 1016.68 1016.09 1015.61 1015.19 1014.86 1014.62 1014.46 1014.39 1014.31 1014.05 1013.59 1013.47 1013.37 1013.19 1012.85 1012.53 1012.30 1012.00 1011.91 1011.80 1012.13 1011.86 1011.45 1010.95 1010.95 1010.86 1010.70 1011.14 1011.24 1011.09 1011.33 1011.06 1011.41 1011.57
1020.80 1020.35 1019.86 1019.41 1019.03 1018.62 1018.49 1018.30 1017.86 1016.97 1016.13 1015.61 1015.05 1014.75 1014.44 1014.24 1013.96 1013.99 1013.98 1013.90 1013.76 1013.16 1012.64 1012.44 1011.95 1011.60 1011.36 1011.20 1011.25 1011.23 1011.33 1011.05 1010.45 1009.86 1009.64 1009.22 1009.53 1009.31 1009.36 1009.31 1009.26 1009.84 1010.06
1021.01 1020.52 1020.04 1019.61 1019.16 1018.75 1018.53 1018.31 1017.82 1017.01 1016.18 1015.61 1015.18 1014.80 1014.43 1014.05 1013.89 1013.44 1013.17 1012.94 1012.76 1012.73 1012.74 1012.44 1011.62 1011.18 1010.87 1010.83 1010.65 1010.53 1010.57 1010.41 1009.71 1009.46 1009.69 1008.89 1009.02 1008.35 1008.32 1008.05 1008.15 1008.39 1008.76
1021.30 1020.75 1020.23 1019.75 1019.25 1018.78 1018.63 1018.28 1017.72 1016.79 1016.04 1015.55 1015.23 1014.91 1014.56 1014.16 1013.90 1013.96 1013.48 1012.61 1011.99 1011.56 1011.37 1011.24 1011.12 1010.93 1010.70 1010.57 1010.34 1010.04 1009.71 1009.29 1008.97 1009.02 1009.23 1008.01 1008.37 1007.57 1007.59 1007.03 1007.11 1007.34 1007.48
1021.36 1020.85 1020.39 1019.89 1019.39 1018.90 1018.61 1018.28 1017.68 1016.66 1015.97 1015.46 1015.06 1014.84 1014.66 1014.43 1014.14 1014.22 1013.62 1012.64 1011.80 1011.19 1010.67 1010.53 1010.47 1010.37 1010.19 1010.04 1010.04 1009.84 1009.18 1008.96 1008.05 1008.07 1008.27 1007.91 1007.72 1007.33 1006.87 1006.10 1006.02 1006.12 1006.30
1021.38 1020.92 1020.37 1019.89 1019.42 1018.91 1018.73 1018.55 1018.07 1017.49 1016.71 1016.24 1015.63 1015.15 1014.62 1014.39 1014.33 1014.13 1013.63 1012.77 1011.82 1011.12 1010.55 1010.05 1009.78 1009.43 1009.16 1008.94 1008.88 1009.01 1008.48 1007.86 1007.49 1007.00 1007.16 1006.95 1007.06 1007.37 1005.86 1004.65 1005.05 1005.35 1005.28
Wind_Speed
3 3 2 2 1 2 2 2 2 2 3 4 4 4 5 5 4 3 2 6 6 6 6 6 6 6 5 5 4 4 3 3 2 2 2 2 3 3 3 3 4 4 4
4 4 2 2 3 2 2 3 3 3 3 4 4 5 6 5 6 5 4 5 8 9 8 8 8 8 7 6 6 5 4 4 3 2 2 2 3 3 3 3 4 3 5
5 5 3 3 3 2 4 3 4 4 4 4 6 5 5 7 6 6 5 4 6 10 10 9 10 9 9 8 8 7 6 5 5 4 3 3 3 4 4 4 4 5 5
7 6 4 4 3 3 3 3 3 4 4 4 5 4 5 6 7 7 6 5 5 5 9 10 11 10 10 9 8 8 7 7 6 5 4 4 4 4 4 3 4 4 5
7 6 5 4 5 4 4 4 4 4 4 4 4 5 6 6 7 6 7 7 7 6 5 10 10 10 11 10 10 9 8 8 7 6 6 6 5 4 3 3 4 4 3
7 6 5 5 5 4 4 4 5 3 4 4 5 7 7 7 6 6 7 7 7 8 7 7 7 8 11 11 11 10 9 9 8 8 7 7 6 5 5 4 4 3 4
8 8 6 6 6 5 6 5 5 5 4 4 5 6 7 8 9 7 7 7 8 8 8 8 6 6 7 13 12 11 11 10 10 9 9 8 7 7 6 6 6 5 5
9 8 8 7 7 5 7 7 6 4 4 4 4 4 4 4 5 7 7 7 9 7 8 9 9 9 7 7 10 11 9 11 12 11 11 10 9 9 8 8 8 7 7
9 9 9 8 7 7 6 7 7 7 5 4 6 4 3 3 3 3 8 7 8 7 7 9 10 10 10 8 7 10 10 10 13 13 13 12 12 11 11 11 10 10 9
10 10 10 9 9 7 8 7 7 7 7 7 4 6 7 5 3 2 4 5 8 9 10 8 9 10 11 9 10 9 15 14 13 15 15 14 14 13 13 13 12 12 12
7 9 9 9 10 8 9 9 9 9 7 8 6 5 6 5 6 6 6 4 5 7 9 10 10 9 12 11 10 11 14 15 16 16 17 16 16 15 15 15 15 14 14
5 7 8 9 10 10 10 9 10 11 10 9 8 8 7 6 5 6 8 8 7 5 6 8 9 10 10 11 12 11 17 18 18 19 18 18 18 17 17 17 17 16 16
5 5 7 8 8 10 10 10 10 11 11 11 12 9 9 9 8 7 8 8 7 6 5 7 8 9 10 10 12 15 16 20 20 20 20 19 18 19 19 19 19 18 18
6 7 7 8 9 10 9 10 8 9 11 10 14 11 9 9 8 9 9 8 9 9 8 9 5 8 9 10 10 13 13 21 21 21 21 21 20 20 20 21 21 20 20
6 6 7 7 8 9 10 9 8 10 11 11 12 12 11 9 9 9 9 9 9 8 9 8 5 5 6 7 8 11 13 15 21 21 22 22 22 22 22 22 22 21 21
10 9 8 6 7 7 8 9 9 10 11 9 9 11 12 10 11 9 10 10 10 11 12 7 7 7 5 5 5 10 11 11 16 21 22 22 23 24 24 23 22 22 21
10 10 10 9 7 6 7 8 10 10 11 11 11 12 13 13 9 9 9 10 11 11 13 11 11 11 12 11 9 8 8 10 10 20 22 23 24 25 25 25 24 23 23
10 10 10 9 9 9 7 7 8 9 10 11 12 12 13 10 13 12 10 13 12 13 11 17 12 11 13 13 13 14 11 10 12 14 23 25 25 26 26 26 25 25 25
10 10 10 10 10 10 9 9 8 8 9 10 11 12 13 12 12 11 12 11 11 11 12 11 12 10 10 9 11 12 13 14 11 14 16 23 26 27 27 27 26 27 27
11 10 10 10 10 10 8 11 10 9 9 9 10 11 12 13 13 13 12 13 12 12 12 12 11 11 10 10 10 9 11 10 11 11 13 16 19 26 28 29 30 30 28
10 11 10 10 10 9 8 12 12 12 11 11 10 9 10 11 12 14 10 12 13 12 11 11 11 11 11 10 11 8 10 10 11 10 10 10 11 12 14 27 27 30 30
12 12 12 12 12 8 10 15 13 12 11 11 10 10 10 9 10 14 18 21 19 15 14 12 11 12 15 11 9 9 10 10 10 9 13 12 10 12 12 13 20 29 29
13 12 12 12 12 12 14 19 18 12 11 11 11 10 10 8 10 10 11 13 17 22 23 18 17 15 15 14 13 12 13 13 13 9 7 10 9 11 11 12 17 18 23
12 11 12 12 12 11 16 18 19 13 11 11 11 11 11 11 10 12 14 14 13 13 13 12 16 17 17 15 15 14 14 14 12 10 12 15 9 12 10 11 15 17 22
11 11 11 12 12 12 15 17 17 11 11 12 11 11 11 12 12 18 15 15 15 13 10 13 17 20 22 22 16 12 12 12 13 11 10 12 9 12 12 12 11 16 22
11 9 10 10 11 11 17 21 18 11 13 11 13 15 14 10 16 22 16 14 15 14 15 15 15 14 17 17 22 18 13 15 13 12 12 14 9 8 7 8 11 10 10
Wind_Direction
223 218 242 250 258 271 268 268 274 275 257 258 251 257 249 234 230 229 241 180 236 243 238 224 213 216 216 221 226 221 213 223 222 201 153 129 116 110 104 111 96 102 92
225 218 234 234 253 265 275 278 291 280 268 261 268 255 259 254 245 236 227 186 214 240 236 232 224 224 226 230 236 236 234 235 231 209 181 157 137 127 124 120 108 96 87
231 224 241 234 262 267 263 255 251 262 259 258 263 257 246 251 239 233 226 229 189 223 239 235 232 226 230 233 235 236 235 234 229 217 197 177 156 139 134 135 126 111 113
222 229 245 246 245 250 259 261 257 254 258 263 266 249 248 244 245 242 229 223 223 235 201 231 233 230 230 233 238 236 234 234 230 218 205 181 167 156 156 151 133 122 113
222 232 237 244 227 241 244 254 250 258 273 267 268 270 254 248 246 241 233 220 223 229 227 178 225 234 232 231 234 235 233 236 232 222 206 190 183 186 185 176 160 152 133
218 231 241 244 232 238 242 239 254 242 277 293 286 273 258 243 240 241 238 227 218 220 224 227 201 218 223 229 229 234 231 233 230 225 215 204 203 204 209 207 202 191 168
218 220 230 231 223 237 239 244 249 254 252 256 283 257 239 241 231 229 230 230 218 219 222 218 219 228 197 220 224 230 232 226 225 222 220 218 218 223 223 222 223 217 204
224 226 228 230 226 231 231 233 232 241 253 246 276 286 270 182 224 226 220 229 231 217 223 219 218 219 224 211 209 212 227 229 222 219 223 225 224 226 229 230 230 231 225
226 228 234 236 230 230 238 227 227 233 256 218 241 284 265 260 312 174 219 220 224 221 227 222 224 222 223 221 196 203 211 220 229 222 223 227 227 228 230 232 232 234 233
226 226 231 234 240 230 238 238 230 233 232 248 222 241 256 284 307 262 183 211 219 225 223 220 227 223 224 223 213 221 188 207 219 228 228 229 228 230 231 233 233 234 235
236 231 233 239 237 235 239 239 229 230 236 245 244 238 240 245 253 258 280 205 211 224 231 228 225 226 223 223 222 215 204 202 209 218 227 232 231 231 232 234 234 236 236
257 242 230 224 235 239 238 238 237 239 236 237 244 238 240 237 226 237 249 267 266 271 235 231 231 228 225 222 223 217 196 208 209 213 218 225 231 232 234 235 234 235 236
268 257 247 242 233 231 235 233 235 236 235 235 234 237 236 242 247 242 262 266 270 282 261 243 229 226 226 224 226 210 208 211 210 213 216 218 224 230 234 236 237 237 236
303 298 275 262 261 253 241 235 232 231 234 236 239 238 242 239 237 237 239 254 264 250 253 252 237 226 224 225 227 194 224 214 216 213 216 217 219 224 229 233 236 238 239
348 325 297 279 270 264 258 250 242 237 230 234 235 234 237 239 238 239 239 237 244 260 265 246 244 212 231 230 232 226 227 218 217 219 216 217 219 221 224 229 233 235 237
4 4 356 321 288 273 264 254 251 247 244 237 237 240 237 239 237 233 236 238 238 246 259 257 247 249 239 239 222 233 238 230 216 223 223 219 219 222 224 226 227 230 234
5 4 2 357 350 322 287 263 258 261 253 252 244 242 245 242 241 237 234 236 236 238 251 254 254 253 244 247 238 221 238 233 237 221 228 227 223 222 224 226 226 227 229
1 1 359 360 358 353 342 311 287 271 262 257 254 251 251 250 245 243 241 239 239 238 242 258 257 260 251 246 257 259 247 239 241 227 217 228 229 225 224 225 226 226 227
355 358 358 358 355 351 349 349 334 307 285 275 269 262 257 252 250 244 242 244 242 245 247 250 261 257 257 251 248 253 257 254 244 238 217 218 226 229 227 226 225 226 225
347 350 350 352 353 344 352 347 337 325 312 296 285 275 269 262 257 257 251 248 249 249 247 249 254 260 256 252 244 254 255 240 250 248 236 240 230 230 229 227 227 226 224
338 340 339 342 343 340 8 346 336 323 317 312 304 292 279 281 293 284 274 261 253 253 252 252 252 258 257 250 239 238 249 256 256 250 246 240 232 236 233 234 236 230 226
324 326 325 325 325 323 350 337 333 323 312 311 314 313 308 294 268 257 257 259 265 272 257 258 260 255 259 262 255 238 253 259 269 216 240 248 241 237 232 233 230 232 230
323 321 321 321 318 318 338 331 328 316 309 309 312 315 316 316 310 311 302 266 252 250 251 265 269 263 263 265 268 261 251 251 257 257 261 259 252 251 239 243 233 225 224
324 322 323 324 321 319 332 331 331 305 306 303 308 313 313 318 326 345 325 306 293 281 268 255 246 256 263 269 264 269 270 271 263 254 258 265 250 259 257 254 231 231 231
320 322 325 324 325 326 341 341 339 322 313 306 303 309 318 315 331 336 322 310 302 295 287 249 251 264 274 274 268 271 259 260 263 257 239 257 253 268 264 260 249 222 226
321 325 325 326 327 335 360 348 346 334 328 333 329 323 321 317 331 324 317 312 304 300 301 298 297 281 255 251 248 248 255 253 257 267 243 247 242 252 264 231 240 256 244